Lid_Strength_Index
2 2 2 1 1 0 0 1 1 1 1 1 1 1 1 1 2 2 2 2 2 2 2 2 2 2 3 8 8 4 -2 -1 1 6 7 7 8 8 8 7 8 10 9 9 8 8 8
3 2 2 2 2 2 2 1 1 1 1 1 1 1 1 1 2 2 2 2 3 3 3 2 2 1 5 10 6 2 2 4 5 6 7 7 7 7 8 8 8 9 9 9 8 8 8
3 3 3 3 2 2 2 2 2 1 1 1 1 1 2 2 2 2 2 3 4 3 3 2 1 2 6 7 5 3 5 7 7 7 8 6 6 7 8 10 8 9 10 9 8 8 6
4 4 3 3 3 3 3 3 3 2 1 1 1 2 2 2 2 2 2 3 4 4 3 1 1 2 6 4 4 4 4 7 8 7 6 6 6 8 8 9 9 10 10 11 8 8 6
4 4 3 3 3 3 3 3 3 3 2 2 2 2 2 2 2 2 3 3 4 3 2 1 3 5 7 2 4 3 4 6 7 8 7 6 7 9 9 10 11 11 12 11 10 8 6
4 4 4 3 3 3 3 3 3 3 3 3 3 2 2 2 2 3 4 4 4 3 2 1 2 6 5 6 5 4 4 5 6 8 9 8 8 9 10 11 13 12 12 11 10 9 8
4 4 4 3 3 3 3 3 3 3 3 3 3 3 3 2 3 3 5 6 6 7 5 7 7 7 6 5 5 5 4 5 5 6 9 9 10 11 10 10 11 11 11 12 10 9 9
4 4 4 4 4 4 3 3 3 3 3 3 3 3 3 3 3 4 6 7 7 6 9 6 6 6 5 5 7 7 4 6 6 8 8 9 11 10 9 10 11 11 11 11 10 10 10
4 4 4 4 4 4 4 3 3 3 3 3 3 3 3 3 4 6 7 6 5 5 9 7 6 6 6 6 7 7 5 5 6 8 8 9 9 9 9 10 11 11 11 11 10 10 10
4 4 4 4 4 4 4 4 4 3 3 3 3 4 3 3 6 7 8 6 6 5 11 10 9 7 7 6 8 5 5 5 7 7 8 8 8 9 10 10 10 12 10 10 10 10 11
5 5 4 4 4 4 4 4 4 4 3 3 3 3 3 4 5 7 8 5 6 7 17 10 9 6 8 8 8 8 4 5 7 7 8 8 9 10 10 9 9 10 10 10 10 10 10
5 5 5 5 4 4 4 4 4 4 4 4 3 3 3 5 5 5 5 6 7 12 17 11 8 10 10 9 8 7 6 4 5 7 8 7 7 8 7 8 8 8 9 10 11 11 13
5 5 5 5 5 5 5 4 4 4 4 4 4 4 3 5 6 5 5 7 12 15 10 12 11 10 10 10 9 8 8 8 8 10 10 8 8 6 6 8 8 8 9 12 13 13 13
5 5 5 5 5 4 5 4 4 4 4 4 4 4 4 3 5 4 6 10 15 12 11 9 9 9 11 10 9 8 8 9 7 7 9 10 11 7 6 7 8 9 8 11 15 15 13
5 5 5 5 5 5 5 5 5 5 5 4 5 4 5 3 3 4 10 15 14 12 10 10 9 11 11 10 9 8 8 8 7 7 9 11 10 6 6 7 7 9 10 8 10 12 11
5 5 5 4 4 5 5 5 4 4 4 4 5 5 4 1 2 6 12 15 12 9 8 8 11 10 12 10 10 9 9 7 7 6 5 8 10 7 7 7 8 7 7 10 9 14 15
5 5 5 4 5 4 5 4 4 4 4 3 4 5 3 0 2 7 14 13 12 9 7 8 9 10 10 11 10 9 9 9 6 6 5 7 9 9 8 8 9 9 9 9 9 10 12
5 5 5 4 4 4 4 4 3 3 3 3 4 8 4 1 8 8 10 10 9 10 6 7 7 8 9 9 10 10 9 7 6 6 7 6 8 10 9 7 7 8 8 8 10 13 12
5 5 4 4 4 4 4 4 2 2 2 3 6 6 3 4 11 10 8 8 8 8 7 7 8 7 7 9 10 9 9 7 6 6 7 7 9 11 11 9 8 9 8 8 9 10 13
5 5 4 4 4 4 4 3 1 2 2 3 6 10 7 6 6 8 9 9 9 7 8 7 7 7 8 10 8 9 8 7 6 5 6 6 9 10 12 11 9 10 9 8 9 11 12
5 4 4 3 3 3 3 2 1 2 2 3 6 9 7 11 9 8 8 8 9 9 7 6 8 8 9 11 10 9 8 7 6 6 6 6 9 9 10 9 9 10 9 9 10 10 10
5 4 3 3 3 2 2 2 1 2 3 4 7 8 6 7 7 8 8 9 8 8 8 9 10 8 8 10 10 11 9 8 8 7 7 7 10 10 12 10 10 12 10 10 10 11 11
4 3 3 3 2 2 2 2 1 2 3 5 4 3 7 8 8 9 8 8 8 6 7 8 8 8 9 9 7 6 6 6 6 8 8 8 9 10 13 11 10 13 12 11 11 10 10
4 3 3 3 2 2 2 2 1 2 3 3 4 5 8 10 8 8 8 7 7 6 7 7 7 9 7 4 5 5 6 6 6 7 7 9 9 10 13 11 15 12 9 9 10 10 9
4 3 3 3 2 2 2 2 1 1 2 3 3 6 8 10 8 8 8 8 7 6 7 7 6 5 4 6 8 10 10 9 8 7 7 7 9 11 14 13 13 12 10 10 11 12 8
4 3 2 3 2 2 2 3 2 2 2 2 3 4 6 8 9 7 8 7 8 8 7 8 5 3 5 8 10 13 13 11 12 9 7 7 8 10 12 14 15 11 9 7 7 13 8
4 3 2 4 3 3 3 3 2 2 2 3 4 3 6 8 5 6 7 8 6 7 9 7 6 7 6 10 12 13 12 9 12 11 10 10 10 11 12 13 12 9 7 6 13 11 7
4 4 3 4 3 2 2 2 2 2 2 3 4 2 4 6 5 4 4 6 6 7 9 7 7 8 9 12 11 11 11 11 11 11 11 10 11 12 12 13 14 7 8 10 8 6 6
4 4 3 4 3 1 2 2 2 2 2 2 5 3 2 6 5 2 2 2 3 4 6 6 8 8 8 10 9 9 11 9 11 13 9 11 10 11 11 11 8 6 7 6 5 6 6